This is the latest recevied weather packets stored in our database for station/object N8SHA. If no packets are shown the sender has not sent any weather packets the latest 10 day(s).
| Time | Temp. | Humidity | Pressure | Rain* | Wind** | Luminosity | Snow |
|---|---|---|---|---|---|---|---|
| 1777488521 | 10.56° C | 76% | 1011 hPa | 0 mm | - | 104 W/m² | - |
| 1777488218 | 10.56° C | 77% | 1011 hPa | 0 mm | - | 92 W/m² | - |
| 1777487916 | 11.11° C | 76% | 1011 hPa | 0 mm | - | 107 W/m² | - |
| 1777487614 | 11.11° C | 76% | 1011 hPa | 0 mm | - | 130 W/m² | - |
| 1777487311 | 11.67° C | 76% | 1011.1 hPa | 0 mm | - | 190 W/m² | - |
| 1777487008 | 11.11° C | 76% | 1011 hPa | 0 mm | - | 263 W/m² | - |
| 1777486704 | 11.67° C | 76% | 1010.9 hPa | 0 mm | - | 328 W/m² | - |
| 1777486402 | 11.67° C | 77% | 1011.1 hPa | 0 mm | - | 456 W/m² | - |
| 1777486099 | 11.67° C | 75% | 1011.1 hPa | 0 mm | - | 383 W/m² | - |
| 1777485795 | 11.67° C | 78% | 1010.9 hPa | 0 mm | - | 484 W/m² | - |
| 1777485491 | 12.22° C | 76% | 1011 hPa | 0 mm | - | 545 W/m² | - |
| 1777485188 | 11.67° C | 76% | 1011.2 hPa | 0 mm | - | 618 W/m² | - |
| 1777484884 | 11.67° C | 79% | 1011.1 hPa | 0 mm | - | 526 W/m² | - |
| 1777484582 | 11.11° C | 80% | 1011 hPa | 0 mm | - | 726 W/m² | - |
| 1777484278 | 10.56° C | 80% | 1011 hPa | 0 mm | - | 378 W/m² | - |
| 1777483974 | 10.56° C | 80% | 1011.3 hPa | 0 mm | - | 294 W/m² | - |
| 1777483670 | 11.11° C | 79% | 1011.5 hPa | 0 mm | - | 269 W/m² | - |
| 1777483366 | 10.56° C | 81% | 1011.4 hPa | 0 mm | - | 526 W/m² | - |
| 1777483061 | 10.56° C | 82% | 1011.5 hPa | 0 mm | - | 341 W/m² | - |
| 1777482759 | 10.56° C | 83% | 1011.7 hPa | 0 mm | - | 331 W/m² | - |
| 1777482454 | 10.56° C | 84% | 1011.6 hPa | 0 mm | - | 413 W/m² | - |
| 1777482152 | 10.56° C | 84% | 1011.6 hPa | 0 mm | - | 515 W/m² | - |
| 1777481850 | 10.56° C | 85% | 1011.7 hPa | 0 mm | - | 689 W/m² | - |
| 1777481547 | 10° C | 86% | 1011.8 hPa | 0 mm | - | 450 W/m² | - |
| 1777481244 | 10° C | 85% | 1011.9 hPa | 0 mm | - | 312 W/m² | - |
* Rain latest hour (hover to see other rain measurements)
** Current wind speed in m/s (hover to see current wind gust speed)